owner,sensor,date,latitude,longitude,air_pressure(mBar),qcFlag 
DISL,ioos:station:DISL:DISL:1,2009-03-01T00:00:00Z,30.2513,-88.0778,912.0,1111122 
DISL,ioos:station:DISL:DISL:1,2009-03-01T01:00:00Z,30.2513,-88.0778,1098.0,1111122 
DISL,ioos:station:DISL:DISL:1,2009-03-01T02:00:00Z,30.2513,-88.0778,959.0,1111122 
DISL,ioos:station:DISL:DISL:1,2009-03-01T03:00:00Z,30.2513,-88.0778,1144.0,1111122 
DISL,ioos:station:DISL:DISL:1,2009-03-01T04:00:00Z,30.2513,-88.0778,1314.0,1111122 
DISL,ioos:station:DISL:DISL:1,2009-03-01T04:30:00Z,30.2513,-88.0778,1330.0,1111122 
DISL,ioos:station:DISL:DISL:1,2009-03-02T00:30:00Z,30.2513,-88.0778,1392.0,1111122 
DISL,ioos:station:DISL:DISL:1,2009-03-02T01:00:00Z,30.2513,-88.0778,1345.0,1111122 
DISL,ioos:station:DISL:DISL:1,2009-03-02T01:30:00Z,30.2513,-88.0778,1330.0,1111122 
DISL,ioos:station:DISL:DISL:1,2009-03-02T02:00:00Z,30.2513,-88.0778,1299.0,1111122 
DISL,ioos:station:DISL:DISL:1,2009-03-02T02:30:00Z,30.2513,-88.0778,1268.0,1111122 
DISL,ioos:station:DISL:DISL:1,2009-03-02T03:00:00Z,30.2513,-88.0778,1268.0,1111122 
DISL,ioos:station:DISL:DISL:1,2009-03-02T03:30:00Z,30.2513,-88.0778,1268.0,1111122 
DISL,ioos:station:DISL:DISL:1,2009-03-02T04:00:00Z,30.2513,-88.0778,1253.0,1111122 
DISL,ioos:station:DISL:DISL:1,2009-03-02T04:30:00Z,30.2513,-88.0778,1268.0,1111122 
DISL,ioos:station:DISL:DISL:1,2009-03-02T05:00:00Z,30.2513,-88.0778,1268.0,1111122 
DISL,ioos:station:DISL:DISL:1,2009-03-02T05:30:00Z,30.2513,-88.0778,1268.0,1111122 
DISL,ioos:station:DISL:DISL:1,2009-03-02T06:00:00Z,30.2513,-88.0778,1268.0,1111122 
DISL,ioos:station:DISL:DISL:1,2009-03-02T06:30:00Z,30.2513,-88.0778,1377.0,1111122 
DISL,ioos:station:DISL:DISL:1,2009-03-03T00:30:00Z,30.2513,-88.0778,1391.0,1111122 
DISL,ioos:station:DISL:DISL:1,2009-03-03T01:00:00Z,30.2513,-88.0778,1361.0,1111122 
DISL,ioos:station:DISL:DISL:1,2009-03-03T01:30:00Z,30.2513,-88.0778,1361.0,1111122 
DISL,ioos:station:DISL:DISL:1,2009-03-03T02:00:00Z,30.2513,-88.0778,1330.0,1111122 
DISL,ioos:station:DISL:DISL:1,2009-03-03T02:30:00Z,30.2513,-88.0778,1330.0,1111122 
DISL,ioos:station:DISL:DISL:1,2009-03-03T03:00:00Z,30.2513,-88.0778,1330.0,1111122 
DISL,ioos:station:DISL:DISL:1,2009-03-03T03:30:00Z,30.2513,-88.0778,1330.0,1111122 
DISL,ioos:station:DISL:DISL:1,2009-03-03T04:00:00Z,30.2513,-88.0778,1299.0,1111122 
DISL,ioos:station:DISL:DISL:1,2009-03-03T04:30:00Z,30.2513,-88.0778,1299.0,1111122 
DISL,ioos:station:DISL:DISL:1,2009-03-03T05:00:00Z,30.2513,-88.0778,1283.0,1111122 
DISL,ioos:station:DISL:DISL:1,2009-03-03T05:30:00Z,30.2513,-88.0778,1268.0,1111122 
DISL,ioos:station:DISL:DISL:1,2009-03-03T06:00:00Z,30.2513,-88.0778,1268.0,1111122 
DISL,ioos:station:DISL:DISL:1,2009-03-03T06:30:00Z,30.2513,-88.0778,1268.0,1111122 
DISL,ioos:station:DISL:DISL:1,2009-03-03T07:00:00Z,30.2513,-88.0778,1268.0,1111122 
DISL,ioos:station:DISL:DISL:1,2009-03-03T07:30:00Z,30.2513,-88.0778,1284.0,1111122 
DISL,ioos:station:DISL:DISL:1,2009-03-03T08:00:00Z,30.2513,-88.0778,1284.0,1111122 
DISL,ioos:station:DISL:DISL:1,2009-03-03T08:30:00Z,30.2513,-88.0778,1299.0,1111122 
DISL,ioos:station:DISL:DISL:1,2009-03-03T09:00:00Z,30.2513,-88.0778,1315.0,1111122 
DISL,ioos:station:DISL:DISL:1,2009-03-03T09:30:00Z,30.2513,-88.0778,1330.0,1111122 
DISL,ioos:station:DISL:DISL:1,2009-03-03T10:00:00Z,30.2513,-88.0778,1377.0,1111122 
DISL,ioos:station:DISL:DISL:1,2009-03-04T00:00:00Z,30.2513,-88.0778,1361.0,1111122 
DISL,ioos:station:DISL:DISL:1,2009-03-04T00:30:00Z,30.2513,-88.0778,1330.0,1111122 
DISL,ioos:station:DISL:DISL:1,2009-03-04T01:00:00Z,30.2513,-88.0778,1330.0,1111122 
DISL,ioos:station:DISL:DISL:1,2009-03-04T01:30:00Z,30.2513,-88.0778,1361.0,1111122 
DISL,ioos:station:DISL:DISL:1,2009-03-04T02:00:00Z,30.2513,-88.0778,1392.0,1111122 
DISL,ioos:station:DISL:DISL:1,2009-03-04T02:30:00Z,30.2513,-88.0778,1392.0,1111122 
DISL,ioos:station:DISL:DISL:1,2009-03-04T03:00:00Z,30.2513,-88.0778,1392.0,1111122 
DISL,ioos:station:DISL:DISL:1,2009-03-04T03:30:00Z,30.2513,-88.0778,1392.0,1111122 
DISL,ioos:station:DISL:DISL:1,2009-03-04T04:00:00Z,30.2513,-88.0778,1392.0,1111122 
DISL,ioos:station:DISL:DISL:1,2009-03-04T04:30:00Z,30.2513,-88.0778,1392.0,1111122 
DISL,ioos:station:DISL:DISL:1,2009-03-04T05:00:00Z,30.2513,-88.0778,1392.0,1111122 
DISL,ioos:station:DISL:DISL:1,2009-03-04T05:30:00Z,30.2513,-88.0778,1392.0,1111122 
DISL,ioos:station:DISL:DISL:1,2009-03-04T06:00:00Z,30.2513,-88.0778,1392.0,1111122 
DISL,ioos:station:DISL:DISL:1,2009-03-04T06:30:00Z,30.2513,-88.0778,1392.0,1111122 
DISL,ioos:station:DISL:DISL:1,2009-03-04T07:00:00Z,30.2513,-88.0778,1392.0,1111122 
DISL,ioos:station:DISL:DISL:1,2009-03-04T07:30:00Z,30.2513,-88.0778,1376.0,1111122 
DISL,ioos:station:DISL:DISL:1,2009-03-04T08:00:00Z,30.2513,-88.0778,1361.0,1111122 
DISL,ioos:station:DISL:DISL:1,2009-03-04T08:30:00Z,30.2513,-88.0778,1345.0,1111122 
DISL,ioos:station:DISL:DISL:1,2009-03-04T09:00:00Z,30.2513,-88.0778,1330.0,1111122 
DISL,ioos:station:DISL:DISL:1,2009-03-04T09:30:00Z,30.2513,-88.0778,1330.0,1111122 
DISL,ioos:station:DISL:DISL:1,2009-03-04T10:00:00Z,30.2513,-88.0778,1330.0,1111122 
DISL,ioos:station:DISL:DISL:1,2009-03-04T10:30:00Z,30.2513,-88.0778,1361.0,1111122 
DISL,ioos:station:DISL:DISL:1,2009-03-04T11:00:00Z,30.2513,-88.0778,1346.0,1111122 
DISL,ioos:station:DISL:DISL:1,2009-03-04T11:30:00Z,30.2513,-88.0778,1346.0,1111122 
DISL,ioos:station:DISL:DISL:1,2009-03-04T12:00:00Z,30.2513,-88.0778,1392.0,1111122 
DISL,ioos:station:DISL:DISL:1,2009-03-05T00:30:00Z,30.2513,-88.0778,1329.0,1111122 
DISL,ioos:station:DISL:DISL:1,2009-03-05T01:00:00Z,30.2513,-88.0778,1329.0,1111122 
DISL,ioos:station:DISL:DISL:1,2009-03-05T01:30:00Z,30.2513,-88.0778,1329.0,1111122 
DISL,ioos:station:DISL:DISL:1,2009-03-05T02:00:00Z,30.2513,-88.0778,1329.0,1111122 
DISL,ioos:station:DISL:DISL:1,2009-03-05T02:30:00Z,30.2513,-88.0778,1329.0,1111122 
DISL,ioos:station:DISL:DISL:1,2009-03-05T03:00:00Z,30.2513,-88.0778,1330.0,1111122 
DISL,ioos:station:DISL:DISL:1,2009-03-05T03:30:00Z,30.2513,-88.0778,1329.0,1111122 
DISL,ioos:station:DISL:DISL:1,2009-03-05T04:00:00Z,30.2513,-88.0778,1299.0,1111122 
DISL,ioos:station:DISL:DISL:1,2009-03-05T04:30:00Z,30.2513,-88.0778,1283.0,1111122 
DISL,ioos:station:DISL:DISL:1,2009-03-05T05:00:00Z,30.2513,-88.0778,1268.0,1111122 
DISL,ioos:station:DISL:DISL:1,2009-03-05T05:30:00Z,30.2513,-88.0778,1206.0,1111122 
DISL,ioos:station:DISL:DISL:1,2009-03-05T06:00:00Z,30.2513,-88.0778,1206.0,1111122 
DISL,ioos:station:DISL:DISL:1,2009-03-05T06:30:00Z,30.2513,-88.0778,1206.0,1111122 
DISL,ioos:station:DISL:DISL:1,2009-03-05T07:00:00Z,30.2513,-88.0778,1020.0,1111122 
DISL,ioos:station:DISL:DISL:1,2009-03-05T07:30:00Z,30.2513,-88.0778,1082.0,1111122 
DISL,ioos:station:DISL:DISL:1,2009-03-05T08:00:00Z,30.2513,-88.0778,1144.0,1111122 
DISL,ioos:station:DISL:DISL:1,2009-03-05T08:30:00Z,30.2513,-88.0778,1144.0,1111122 
DISL,ioos:station:DISL:DISL:1,2009-03-05T09:00:00Z,30.2513,-88.0778,1144.0,1111122 
DISL,ioos:station:DISL:DISL:1,2009-03-05T09:30:00Z,30.2513,-88.0778,1144.0,1111122 
DISL,ioos:station:DISL:DISL:1,2009-03-05T10:00:00Z,30.2513,-88.0778,1144.0,1111122 
DISL,ioos:station:DISL:DISL:1,2009-03-05T10:30:00Z,30.2513,-88.0778,1144.0,1111122 
DISL,ioos:station:DISL:DISL:1,2009-03-05T11:00:00Z,30.2513,-88.0778,1144.0,1111122 
DISL,ioos:station:DISL:DISL:1,2009-03-05T11:30:00Z,30.2513,-88.0778,1129.0,1111122 
DISL,ioos:station:DISL:DISL:1,2009-03-05T12:00:00Z,30.2513,-88.0778,1175.0,1111122 
DISL,ioos:station:DISL:DISL:1,2009-03-06T00:00:00Z,30.2513,-88.0778,1268.0,1111122 
DISL,ioos:station:DISL:DISL:1,2009-03-06T00:30:00Z,30.2513,-88.0778,1128.0,1111122 
DISL,ioos:station:DISL:DISL:1,2009-03-06T01:00:00Z,30.2513,-88.0778,1020.0,1111122 
DISL,ioos:station:DISL:DISL:1,2009-03-06T01:30:00Z,30.2513,-88.0778,1020.0,1111122 
DISL,ioos:station:DISL:DISL:1,2009-03-06T02:00:00Z,30.2513,-88.0778,1020.0,1111122 
DISL,ioos:station:DISL:DISL:1,2009-03-06T02:30:00Z,30.2513,-88.0778,1020.0,1111122 
DISL,ioos:station:DISL:DISL:1,2009-03-06T03:00:00Z,30.2513,-88.0778,1051.0,1111122 
DISL,ioos:station:DISL:DISL:1,2009-03-06T03:30:00Z,30.2513,-88.0778,1082.0,1111122 
DISL,ioos:station:DISL:DISL:1,2009-03-06T04:00:00Z,30.2513,-88.0778,1082.0,1111122 
DISL,ioos:station:DISL:DISL:1,2009-03-06T04:30:00Z,30.2513,-88.0778,1067.0,1111122 
DISL,ioos:station:DISL:DISL:1,2009-03-06T05:00:00Z,30.2513,-88.0778,1082.0,1111122 
DISL,ioos:station:DISL:DISL:1,2009-03-06T05:30:00Z,30.2513,-88.0778,1098.0,1111122 
DISL,ioos:station:DISL:DISL:1,2009-03-06T06:00:00Z,30.2513,-88.0778,1082.0,1111122 
DISL,ioos:station:DISL:DISL:1,2009-03-06T06:30:00Z,30.2513,-88.0778,1082.0,1111122 
DISL,ioos:station:DISL:DISL:1,2009-03-06T07:00:00Z,30.2513,-88.0778,1082.0,1111122 
DISL,ioos:station:DISL:DISL:1,2009-03-06T07:30:00Z,30.2513,-88.0778,1082.0,1111122 
DISL,ioos:station:DISL:DISL:1,2009-03-06T08:00:00Z,30.2513,-88.0778,1082.0,1111122 
DISL,ioos:station:DISL:DISL:1,2009-03-06T08:30:00Z,30.2513,-88.0778,1082.0,1111122 
DISL,ioos:station:DISL:DISL:1,2009-03-06T09:00:00Z,30.2513,-88.0778,1082.0,1111122 
DISL,ioos:station:DISL:DISL:1,2009-03-06T09:30:00Z,30.2513,-88.0778,1082.0,1111122 
DISL,ioos:station:DISL:DISL:1,2009-03-06T10:00:00Z,30.2513,-88.0778,1098.0,1111122 
DISL,ioos:station:DISL:DISL:1,2009-03-06T10:30:00Z,30.2513,-88.0778,1082.0,1111122 
DISL,ioos:station:DISL:DISL:1,2009-03-06T11:00:00Z,30.2513,-88.0778,1144.0,1111122 
DISL,ioos:station:DISL:DISL:1,2009-03-06T11:30:00Z,30.2513,-88.0778,1175.0,1111122 
DISL,ioos:station:DISL:DISL:1,2009-03-06T12:00:00Z,30.2513,-88.0778,1268.0,1111122 
DISL,ioos:station:DISL:DISL:1,2009-03-07T00:00:00Z,30.2513,-88.0778,1314.0,1111122 
DISL,ioos:station:DISL:DISL:1,2009-03-07T00:30:00Z,30.2513,-88.0778,1190.0,1111122 
DISL,ioos:station:DISL:DISL:1,2009-03-07T01:00:00Z,30.2513,-88.0778,1190.0,1111122 
DISL,ioos:station:DISL:DISL:1,2009-03-07T01:30:00Z,30.2513,-88.0778,1190.0,1111122 
DISL,ioos:station:DISL:DISL:1,2009-03-07T02:00:00Z,30.2513,-88.0778,1175.0,1111122 
DISL,ioos:station:DISL:DISL:1,2009-03-07T02:30:00Z,30.2513,-88.0778,1066.0,1111122 
DISL,ioos:station:DISL:DISL:1,2009-03-07T03:00:00Z,30.2513,-88.0778,1082.0,1111122 
DISL,ioos:station:DISL:DISL:1,2009-03-07T03:30:00Z,30.2513,-88.0778,1082.0,1111122 
DISL,ioos:station:DISL:DISL:1,2009-03-07T04:00:00Z,30.2513,-88.0778,1144.0,1111122 
DISL,ioos:station:DISL:DISL:1,2009-03-07T04:30:00Z,30.2513,-88.0778,1144.0,1111122 
DISL,ioos:station:DISL:DISL:1,2009-03-07T05:00:00Z,30.2513,-88.0778,1159.0,1111122 
DISL,ioos:station:DISL:DISL:1,2009-03-07T05:30:00Z,30.2513,-88.0778,1144.0,1111122 
DISL,ioos:station:DISL:DISL:1,2009-03-07T06:00:00Z,30.2513,-88.0778,1206.0,1111122 
DISL,ioos:station:DISL:DISL:1,2009-03-07T06:30:00Z,30.2513,-88.0778,1206.0,1111122 
DISL,ioos:station:DISL:DISL:1,2009-03-07T07:00:00Z,30.2513,-88.0778,1221.0,1111122 
DISL,ioos:station:DISL:DISL:1,2009-03-07T07:30:00Z,30.2513,-88.0778,1206.0,1111122 
DISL,ioos:station:DISL:DISL:1,2009-03-07T08:00:00Z,30.2513,-88.0778,1206.0,1111122 
DISL,ioos:station:DISL:DISL:1,2009-03-07T08:30:00Z,30.2513,-88.0778,1206.0,1111122 
DISL,ioos:station:DISL:DISL:1,2009-03-07T09:00:00Z,30.2513,-88.0778,1206.0,1111122 
DISL,ioos:station:DISL:DISL:1,2009-03-07T09:30:00Z,30.2513,-88.0778,1206.0,1111122 
DISL,ioos:station:DISL:DISL:1,2009-03-07T10:00:00Z,30.2513,-88.0778,1206.0,1111122 
DISL,ioos:station:DISL:DISL:1,2009-03-07T10:30:00Z,30.2513,-88.0778,1206.0,1111122 
DISL,ioos:station:DISL:DISL:1,2009-03-07T11:00:00Z,30.2513,-88.0778,1206.0,1111122 
DISL,ioos:station:DISL:DISL:1,2009-03-07T11:30:00Z,30.2513,-88.0778,1175.0,1111122 
DISL,ioos:station:DISL:DISL:1,2009-03-07T12:00:00Z,30.2513,-88.0778,1268.0,1111122 
DISL,ioos:station:DISL:DISL:1,2009-03-08T00:00:00Z,30.2513,-88.0778,1020.0,1111122 
DISL,ioos:station:DISL:DISL:1,2009-03-08T00:30:00Z,30.2513,-88.0778,850.0,1111122 
DISL,ioos:station:DISL:DISL:1,2009-03-08T01:00:00Z,30.2513,-88.0778,850.0,1111122 
DISL,ioos:station:DISL:DISL:1,2009-03-08T01:30:00Z,30.2513,-88.0778,850.0,1111122 
DISL,ioos:station:DISL:DISL:1,2009-03-08T02:00:00Z,30.2513,-88.0778,896.0,1111122 
DISL,ioos:station:DISL:DISL:1,2009-03-08T02:30:00Z,30.2513,-88.0778,881.0,1111122 
DISL,ioos:station:DISL:DISL:1,2009-03-08T03:00:00Z,30.2513,-88.0778,896.0,1111122 
DISL,ioos:station:DISL:DISL:1,2009-03-08T03:30:00Z,30.2513,-88.0778,912.0,1111122 
DISL,ioos:station:DISL:DISL:1,2009-03-08T04:00:00Z,30.2513,-88.0778,943.0,1111122 
DISL,ioos:station:DISL:DISL:1,2009-03-08T04:30:00Z,30.2513,-88.0778,1020.0,1111122 
DISL,ioos:station:DISL:DISL:1,2009-03-08T05:00:00Z,30.2513,-88.0778,1036.0,1111122 
DISL,ioos:station:DISL:DISL:1,2009-03-08T05:30:00Z,30.2513,-88.0778,1098.0,1111122 
DISL,ioos:station:DISL:DISL:1,2009-03-08T06:00:00Z,30.2513,-88.0778,1128.0,1111122 
DISL,ioos:station:DISL:DISL:1,2009-03-08T06:30:00Z,30.2513,-88.0778,1144.0,1111122 
DISL,ioos:station:DISL:DISL:1,2009-03-08T07:00:00Z,30.2513,-88.0778,1144.0,1111122 
DISL,ioos:station:DISL:DISL:1,2009-03-08T07:30:00Z,30.2513,-88.0778,1190.0,1111122 
DISL,ioos:station:DISL:DISL:1,2009-03-08T08:00:00Z,30.2513,-88.0778,1190.0,1111122 
DISL,ioos:station:DISL:DISL:1,2009-03-08T08:30:00Z,30.2513,-88.0778,1190.0,1111122 
DISL,ioos:station:DISL:DISL:1,2009-03-08T09:00:00Z,30.2513,-88.0778,1159.0,1111122 
DISL,ioos:station:DISL:DISL:1,2009-03-08T09:30:00Z,30.2513,-88.0778,1190.0,1111122 
DISL,ioos:station:DISL:DISL:1,2009-03-08T10:00:00Z,30.2513,-88.0778,1190.0,1111122 
DISL,ioos:station:DISL:DISL:1,2009-03-08T10:30:00Z,30.2513,-88.0778,1206.0,1111122 
DISL,ioos:station:DISL:DISL:1,2009-03-08T11:00:00Z,30.2513,-88.0778,1206.0,1111122 
DISL,ioos:station:DISL:DISL:1,2009-03-08T11:30:00Z,30.2513,-88.0778,1221.0,1111122 
DISL,ioos:station:DISL:DISL:1,2009-03-08T12:00:00Z,30.2513,-88.0778,1329.0,1111122 
DISL,ioos:station:DISL:DISL:1,2009-03-09T00:00:00Z,30.2513,-88.0778,1128.0,1111122 
DISL,ioos:station:DISL:DISL:1,2009-03-09T00:30:00Z,30.2513,-88.0778,912.0,1111122 
DISL,ioos:station:DISL:DISL:1,2009-03-09T01:00:00Z,30.2513,-88.0778,896.0,1111122 
DISL,ioos:station:DISL:DISL:1,2009-03-09T01:30:00Z,30.2513,-88.0778,896.0,1111122 
DISL,ioos:station:DISL:DISL:1,2009-03-09T02:00:00Z,30.2513,-88.0778,912.0,1111122 
DISL,ioos:station:DISL:DISL:1,2009-03-09T02:30:00Z,30.2513,-88.0778,943.0,1111122 
DISL,ioos:station:DISL:DISL:1,2009-03-09T03:00:00Z,30.2513,-88.0778,912.0,1111122 
DISL,ioos:station:DISL:DISL:1,2009-03-09T03:30:00Z,30.2513,-88.0778,943.0,1111122 
DISL,ioos:station:DISL:DISL:1,2009-03-09T04:00:00Z,30.2513,-88.0778,1020.0,1111122 
DISL,ioos:station:DISL:DISL:1,2009-03-09T04:30:00Z,30.2513,-88.0778,1082.0,1111122 
DISL,ioos:station:DISL:DISL:1,2009-03-09T05:00:00Z,30.2513,-88.0778,1144.0,1111122 
DISL,ioos:station:DISL:DISL:1,2009-03-09T05:30:00Z,30.2513,-88.0778,1128.0,1111122 
DISL,ioos:station:DISL:DISL:1,2009-03-09T06:00:00Z,30.2513,-88.0778,1144.0,1111122 
DISL,ioos:station:DISL:DISL:1,2009-03-09T06:30:00Z,30.2513,-88.0778,1144.0,1111122 
DISL,ioos:station:DISL:DISL:1,2009-03-09T07:00:00Z,30.2513,-88.0778,1144.0,1111122 
DISL,ioos:station:DISL:DISL:1,2009-03-09T07:30:00Z,30.2513,-88.0778,1144.0,1111122 
DISL,ioos:station:DISL:DISL:1,2009-03-09T08:00:00Z,30.2513,-88.0778,1128.0,1111122 
DISL,ioos:station:DISL:DISL:1,2009-03-09T08:30:00Z,30.2513,-88.0778,1144.0,1111122 
DISL,ioos:station:DISL:DISL:1,2009-03-09T09:00:00Z,30.2513,-88.0778,1159.0,1111122 
DISL,ioos:station:DISL:DISL:1,2009-03-09T09:30:00Z,30.2513,-88.0778,1175.0,1111122 
DISL,ioos:station:DISL:DISL:1,2009-03-09T10:00:00Z,30.2513,-88.0778,1190.0,1111122 
DISL,ioos:station:DISL:DISL:1,2009-03-09T10:30:00Z,30.2513,-88.0778,1206.0,1111122 
DISL,ioos:station:DISL:DISL:1,2009-03-09T11:00:00Z,30.2513,-88.0778,1206.0,1111122 
DISL,ioos:station:DISL:DISL:1,2009-03-09T11:30:00Z,30.2513,-88.0778,1206.0,1111122 
DISL,ioos:station:DISL:DISL:1,2009-03-09T12:00:00Z,30.2513,-88.0778,1268.0,1111122 
DISL,ioos:station:DISL:DISL:1,2009-03-10T00:00:00Z,30.2513,-88.0778,1344.0,1111122 
DISL,ioos:station:DISL:DISL:1,2009-03-10T00:30:00Z,30.2513,-88.0778,974.0,1111122 
DISL,ioos:station:DISL:DISL:1,2009-03-10T01:00:00Z,30.2513,-88.0778,989.0,1111122 
DISL,ioos:station:DISL:DISL:1,2009-03-10T01:30:00Z,30.2513,-88.0778,572.0,1111122 
DISL,ioos:station:DISL:DISL:1,2009-03-10T02:00:00Z,30.2513,-88.0778,634.0,1111122 
DISL,ioos:station:DISL:DISL:1,2009-03-10T02:30:00Z,30.2513,-88.0778,634.0,1111122 
DISL,ioos:station:DISL:DISL:1,2009-03-10T03:00:00Z,30.2513,-88.0778,634.0,1111122 
DISL,ioos:station:DISL:DISL:1,2009-03-10T03:30:00Z,30.2513,-88.0778,634.0,1111122 
DISL,ioos:station:DISL:DISL:1,2009-03-10T04:00:00Z,30.2513,-88.0778,603.0,1111122 
DISL,ioos:station:DISL:DISL:1,2009-03-10T04:30:00Z,30.2513,-88.0778,603.0,1111122 
DISL,ioos:station:DISL:DISL:1,2009-03-10T05:00:00Z,30.2513,-88.0778,634.0,1111122 
DISL,ioos:station:DISL:DISL:1,2009-03-10T05:30:00Z,30.2513,-88.0778,773.0,1111122 
DISL,ioos:station:DISL:DISL:1,2009-03-10T06:00:00Z,30.2513,-88.0778,834.0,1111122 
DISL,ioos:station:DISL:DISL:1,2009-03-10T06:30:00Z,30.2513,-88.0778,943.0,1111122 
DISL,ioos:station:DISL:DISL:1,2009-03-10T07:00:00Z,30.2513,-88.0778,1051.0,1111122 
DISL,ioos:station:DISL:DISL:1,2009-03-10T07:30:00Z,30.2513,-88.0778,1144.0,1111122 
DISL,ioos:station:DISL:DISL:1,2009-03-10T08:00:00Z,30.2513,-88.0778,1144.0,1111122 
DISL,ioos:station:DISL:DISL:1,2009-03-10T08:30:00Z,30.2513,-88.0778,1128.0,1111122 
DISL,ioos:station:DISL:DISL:1,2009-03-10T09:00:00Z,30.2513,-88.0778,1144.0,1111122 
DISL,ioos:station:DISL:DISL:1,2009-03-10T09:30:00Z,30.2513,-88.0778,1175.0,1111122 
DISL,ioos:station:DISL:DISL:1,2009-03-10T10:00:00Z,30.2513,-88.0778,1159.0,1111122 
DISL,ioos:station:DISL:DISL:1,2009-03-10T10:30:00Z,30.2513,-88.0778,1190.0,1111122 
DISL,ioos:station:DISL:DISL:1,2009-03-10T11:00:00Z,30.2513,-88.0778,1206.0,1111122 
DISL,ioos:station:DISL:DISL:1,2009-03-10T11:30:00Z,30.2513,-88.0778,1175.0,1111122 
DISL,ioos:station:DISL:DISL:1,2009-03-10T12:00:00Z,30.2513,-88.0778,1345.0,1111122 
DISL,ioos:station:DISL:DISL:1,2009-03-11T00:00:00Z,30.2513,-88.0778,1282.0,1111122 
DISL,ioos:station:DISL:DISL:1,2009-03-11T00:30:00Z,30.2513,-88.0778,1020.0,1111122 
DISL,ioos:station:DISL:DISL:1,2009-03-11T01:00:00Z,30.2513,-88.0778,1020.0,1111122 
DISL,ioos:station:DISL:DISL:1,2009-03-11T01:30:00Z,30.2513,-88.0778,1036.0,1111122 
DISL,ioos:station:DISL:DISL:1,2009-03-11T02:00:00Z,30.2513,-88.0778,1004.0,1111122 
DISL,ioos:station:DISL:DISL:1,2009-03-11T02:30:00Z,30.2513,-88.0778,1004.0,1111122 
DISL,ioos:station:DISL:DISL:1,2009-03-11T03:00:00Z,30.2513,-88.0778,974.0,1111122 
DISL,ioos:station:DISL:DISL:1,2009-03-11T03:30:00Z,30.2513,-88.0778,912.0,1111122 
DISL,ioos:station:DISL:DISL:1,2009-03-11T04:00:00Z,30.2513,-88.0778,912.0,1111122 
DISL,ioos:station:DISL:DISL:1,2009-03-11T04:30:00Z,30.2513,-88.0778,912.0,1111122 
DISL,ioos:station:DISL:DISL:1,2009-03-11T05:00:00Z,30.2513,-88.0778,943.0,1111122 
DISL,ioos:station:DISL:DISL:1,2009-03-11T05:30:00Z,30.2513,-88.0778,958.0,1111122 
DISL,ioos:station:DISL:DISL:1,2009-03-11T06:00:00Z,30.2513,-88.0778,974.0,1111122 
DISL,ioos:station:DISL:DISL:1,2009-03-11T06:30:00Z,30.2513,-88.0778,974.0,1111122 
DISL,ioos:station:DISL:DISL:1,2009-03-11T07:00:00Z,30.2513,-88.0778,989.0,1111122 
DISL,ioos:station:DISL:DISL:1,2009-03-11T07:30:00Z,30.2513,-88.0778,1020.0,1111122 
DISL,ioos:station:DISL:DISL:1,2009-03-11T08:00:00Z,30.2513,-88.0778,1020.0,1111122 
DISL,ioos:station:DISL:DISL:1,2009-03-11T08:30:00Z,30.2513,-88.0778,1051.0,1111122 
DISL,ioos:station:DISL:DISL:1,2009-03-11T09:00:00Z,30.2513,-88.0778,1067.0,1111122 
DISL,ioos:station:DISL:DISL:1,2009-03-11T09:30:00Z,30.2513,-88.0778,1067.0,1111122 
DISL,ioos:station:DISL:DISL:1,2009-03-11T10:00:00Z,30.2513,-88.0778,1082.0,1111122 
DISL,ioos:station:DISL:DISL:1,2009-03-11T10:30:00Z,30.2513,-88.0778,1082.0,1111122 
DISL,ioos:station:DISL:DISL:1,2009-03-11T11:00:00Z,30.2513,-88.0778,1128.0,1111122 
DISL,ioos:station:DISL:DISL:1,2009-03-11T11:30:00Z,30.2513,-88.0778,1113.0,1111122 
DISL,ioos:station:DISL:DISL:1,2009-03-11T12:00:00Z,30.2513,-88.0778,1268.0,1111122 
DISL,ioos:station:DISL:DISL:1,2009-03-12T00:00:00Z,30.2513,-88.0778,1159.0,1111122 
DISL,ioos:station:DISL:DISL:1,2009-03-12T00:30:00Z,30.2513,-88.0778,974.0,1111122 
DISL,ioos:station:DISL:DISL:1,2009-03-12T01:00:00Z,30.2513,-88.0778,943.0,1111122 
DISL,ioos:station:DISL:DISL:1,2009-03-12T01:30:00Z,30.2513,-88.0778,943.0,1111122 
DISL,ioos:station:DISL:DISL:1,2009-03-12T02:00:00Z,30.2513,-88.0778,943.0,1111122 
DISL,ioos:station:DISL:DISL:1,2009-03-12T02:30:00Z,30.2513,-88.0778,927.0,1111122 
DISL,ioos:station:DISL:DISL:1,2009-03-12T03:00:00Z,30.2513,-88.0778,958.0,1111122 
DISL,ioos:station:DISL:DISL:1,2009-03-12T03:30:00Z,30.2513,-88.0778,943.0,1111122 
DISL,ioos:station:DISL:DISL:1,2009-03-12T04:00:00Z,30.2513,-88.0778,928.0,1111122 
DISL,ioos:station:DISL:DISL:1,2009-03-12T04:30:00Z,30.2513,-88.0778,943.0,1111122 
DISL,ioos:station:DISL:DISL:1,2009-03-12T05:00:00Z,30.2513,-88.0778,974.0,1111122 
DISL,ioos:station:DISL:DISL:1,2009-03-12T05:30:00Z,30.2513,-88.0778,989.0,1111122 
DISL,ioos:station:DISL:DISL:1,2009-03-12T06:00:00Z,30.2513,-88.0778,1051.0,1111122 
DISL,ioos:station:DISL:DISL:1,2009-03-12T06:30:00Z,30.2513,-88.0778,1051.0,1111122 
DISL,ioos:station:DISL:DISL:1,2009-03-12T07:00:00Z,30.2513,-88.0778,1067.0,1111122 
DISL,ioos:station:DISL:DISL:1,2009-03-12T07:30:00Z,30.2513,-88.0778,1067.0,1111122 
DISL,ioos:station:DISL:DISL:1,2009-03-12T08:00:00Z,30.2513,-88.0778,1036.0,1111122 
DISL,ioos:station:DISL:DISL:1,2009-03-12T08:30:00Z,30.2513,-88.0778,1051.0,1111122 
DISL,ioos:station:DISL:DISL:1,2009-03-12T09:00:00Z,30.2513,-88.0778,1098.0,1111122 
DISL,ioos:station:DISL:DISL:1,2009-03-12T09:30:00Z,30.2513,-88.0778,1098.0,1111122 
DISL,ioos:station:DISL:DISL:1,2009-03-12T10:00:00Z,30.2513,-88.0778,1051.0,1111122 
DISL,ioos:station:DISL:DISL:1,2009-03-12T10:30:00Z,30.2513,-88.0778,1128.0,1111122 
DISL,ioos:station:DISL:DISL:1,2009-03-12T11:00:00Z,30.2513,-88.0778,1098.0,1111122 
DISL,ioos:station:DISL:DISL:1,2009-03-12T11:30:00Z,30.2513,-88.0778,1066.0,1111122 
DISL,ioos:station:DISL:DISL:1,2009-03-12T12:00:00Z,30.2513,-88.0778,1268.0,1111122 
DISL,ioos:station:DISL:DISL:1,2009-03-13T00:00:00Z,30.2513,-88.0778,1190.0,1111122 
DISL,ioos:station:DISL:DISL:1,2009-03-13T00:30:00Z,30.2513,-88.0778,1004.0,1111122 
DISL,ioos:station:DISL:DISL:1,2009-03-13T01:00:00Z,30.2513,-88.0778,1004.0,1111122 
DISL,ioos:station:DISL:DISL:1,2009-03-13T01:30:00Z,30.2513,-88.0778,1020.0,1111122 
DISL,ioos:station:DISL:DISL:1,2009-03-13T02:00:00Z,30.2513,-88.0778,1020.0,1111122 
DISL,ioos:station:DISL:DISL:1,2009-03-13T02:30:00Z,30.2513,-88.0778,1005.0,1111122 
DISL,ioos:station:DISL:DISL:1,2009-03-13T03:00:00Z,30.2513,-88.0778,1020.0,1111122 
DISL,ioos:station:DISL:DISL:1,2009-03-13T03:30:00Z,30.2513,-88.0778,1005.0,1111122 
DISL,ioos:station:DISL:DISL:1,2009-03-13T04:00:00Z,30.2513,-88.0778,1004.0,1111122 
DISL,ioos:station:DISL:DISL:1,2009-03-13T04:30:00Z,30.2513,-88.0778,1020.0,1111122 
DISL,ioos:station:DISL:DISL:1,2009-03-13T05:00:00Z,30.2513,-88.0778,1004.0,1111122 
DISL,ioos:station:DISL:DISL:1,2009-03-13T05:30:00Z,30.2513,-88.0778,1020.0,1111122 
DISL,ioos:station:DISL:DISL:1,2009-03-13T06:00:00Z,30.2513,-88.0778,1004.0,1111122 
DISL,ioos:station:DISL:DISL:1,2009-03-13T06:30:00Z,30.2513,-88.0778,1004.0,1111122 
DISL,ioos:station:DISL:DISL:1,2009-03-13T07:00:00Z,30.2513,-88.0778,1020.0,1111122 
DISL,ioos:station:DISL:DISL:1,2009-03-13T07:30:00Z,30.2513,-88.0778,1020.0,1111122 
DISL,ioos:station:DISL:DISL:1,2009-03-13T08:00:00Z,30.2513,-88.0778,1020.0,1111122 
DISL,ioos:station:DISL:DISL:1,2009-03-13T08:30:00Z,30.2513,-88.0778,1020.0,1111122 
DISL,ioos:station:DISL:DISL:1,2009-03-13T09:00:00Z,30.2513,-88.0778,1020.0,1111122 
DISL,ioos:station:DISL:DISL:1,2009-03-13T09:30:00Z,30.2513,-88.0778,1020.0,1111122 
DISL,ioos:station:DISL:DISL:1,2009-03-13T10:00:00Z,30.2513,-88.0778,989.0,1111122 
DISL,ioos:station:DISL:DISL:1,2009-03-13T10:30:00Z,30.2513,-88.0778,1020.0,1111122 